Location: Unspecified
(0.0000°N, 0.0000°E)
Time: 04:54:08
(UTC+00:00)

Vanguard 2 Rocket - All Passes

Search period start: 23 February 2018 00:00
Search period end: 05 March 2018 00:00
Orbit: 555 x 3327 km, 32.9° (Epoch: 22 February)

Date Brightness Start Highest point End Pass type
(mag) Time Alt. Az. Time Alt. Az. Time Alt. Az.
23 Feb - 00:06:27 10° NNW 00:14:33 15° N 00:24:04 10° NE visible
23 Feb - 02:22:56 10° NNW 02:38:10 28° NNE 02:53:24 10° ENE visible
23 Feb - 04:39:16 10° NW 04:59:18 59° NNE 05:14:19 10° ESE visible
23 Feb - 06:58:36 10° WNW 07:17:09 63° SW 07:28:37 10° SE daylight
23 Feb - 09:24:47 10° WSW 09:32:37 17° SW 09:38:28 10° S daylight
23 Feb - 16:20:50 10° S 16:22:58 13° SE 16:25:20 10° ESE daylight
23 Feb - 18:30:46 10° WSW 18:35:38 64° NNW 18:43:42 10° NE visible
23 Feb - 20:45:54 10° WNW 20:51:26 20° NNW 20:59:17 10° NNE visible
23 Feb - 23:05:39 10° NNW 23:11:30 13° N 23:18:29 10° NNE night (unlit)
24 Feb - 01:22:22 10° NNW 01:34:49 22° NNE 01:48:36 10° ENE visible
24 Feb - 03:37:52 10° NW 03:56:47 46° NNE 04:13:03 10° E visible
24 Feb - 05:55:37 10° NW 06:15:54 83° SW 06:29:19 10° SE daylight
24 Feb - 08:18:52 10° W 08:32:10 30° SW 08:41:01 10° SSE daylight
24 Feb - 17:32:04 10° SW 17:36:21 70° SE 17:42:51 10° ENE daylight
24 Feb - 19:45:45 10° WNW 19:50:46 24° NNW 19:58:13 10° NNE visible
24 Feb - 22:04:47 10° NNW 22:09:08 13° N 22:14:18 10° NNE visible
25 Feb - 00:22:12 10° NNW 00:31:29 17° NNE 00:42:21 10° NE visible
25 Feb - 02:36:59 10° NNW 02:53:57 36° NNE 03:10:37 10° E visible
25 Feb - 04:53:23 10° NW 05:14:03 78° NE 05:29:23 10° ESE visible
25 Feb - 07:14:12 10° WNW 07:31:26 45° SW 07:42:37 10° SSE daylight
25 Feb - 09:45:36 10° SW 09:47:41 11° SSW 09:49:35 10° SSW daylight
25 Feb - 16:33:47 10° SSW 16:37:23 31° SE 16:41:56 10° E daylight
25 Feb - 18:46:04 10° W 18:50:38 32° NNW 18:57:36 10° NE visible
25 Feb - 21:03:46 10° NNW 21:07:28 13° N 21:11:55 10° NNE visible
25 Feb - 23:22:33 10° NNW 23:28:24 13° N 23:35:15 10° NE night (unlit)
26 Feb - 01:36:37 10° NNW 01:50:59 28° NNE 02:06:46 10° ENE visible
26 Feb - 03:51:49 10° NW 04:11:45 61° NE 04:28:40 10° ESE visible
26 Feb - 06:10:32 10° WNW 06:30:14 63° SW 06:43:36 10° SE daylight
26 Feb - 08:36:41 10° WSW 08:46:52 20° SW 08:54:20 10° S daylight
26 Feb - 15:36:18 10° S 15:38:19 13° SE 15:40:26 10° ESE daylight
26 Feb - 17:46:48 10° WSW 17:51:01 52° NNW 17:57:18 10° NE daylight
26 Feb - 20:02:53 10° NW 20:06:27 14° NNW 20:10:55 10° NNE visible
26 Feb - 22:24:02 10° N 22:25:49 10° N 22:27:41 10° NNE visible
27 Feb - 00:36:48 10° NNW 00:48:00 21° NNE 01:01:15 10° ENE visible
27 Feb - 02:50:54 10° NW 03:09:10 48° NNE 03:26:57 10° ESE visible
27 Feb - 05:07:50 10° WNW 05:28:32 81° SW 05:43:59 10° SE visible
27 Feb - 07:30:44 10° W 07:45:53 32° SW 07:56:22 10° SSE daylight
27 Feb - 16:47:53 10° SW 16:51:52 79° SE 16:57:07 10° ENE daylight
27 Feb - 19:02:23 10° WNW 19:05:59 17° NNW 19:10:45 10° NNE visible
27 Feb - 23:37:37 10° NNW 23:45:09 15° NNE 23:54:07 10° NE visible
28 Feb - 01:50:34 10° NNW 02:06:30 37° NNE 02:24:01 10° E visible
28 Feb - 04:05:59 10° NW 04:26:23 80° NE 04:43:40 10° ESE visible
28 Feb - 06:26:10 10° WNW 06:44:36 46° SW 06:57:36 10° SSE daylight
28 Feb - 08:56:11 10° SW 09:02:06 13° SSW 09:07:01 10° S daylight
28 Feb - 15:49:19 10° SSW 15:52:54 33° SE 15:56:51 10° ENE daylight
28 Feb - 18:02:23 10° W 18:06:02 24° NNW 18:10:59 10° NNE daylight
28 Feb - 22:40:20 10° N 22:42:34 10° NNE 22:44:56 10° NNE night (unlit)
01 Mar - 00:50:49 10° NNW 01:03:53 27° NNE 01:19:34 10° E visible
01 Mar - 03:04:52 10° NW 03:23:57 64° NE 03:42:32 10° ESE visible
01 Mar - 05:22:48 10° WNW 05:42:54 62° SW 05:58:13 10° SE visible
01 Mar - 07:48:29 10° WSW 08:00:46 22° SW 08:09:52 10° SSE daylight
01 Mar - 14:51:13 10° S 14:53:44 15° SSE 14:56:09 10° ESE daylight
01 Mar - 17:02:47 10° WSW 17:06:33 40° NNW 17:11:25 10° NE daylight
01 Mar - 23:51:42 10° NNW 00:01:23 20° NNE 00:13:25 10° ENE visible
02 Mar - 02:04:27 10° NW 02:21:29 49° NE 02:40:21 10° ESE visible
02 Mar - 04:20:29 10° WNW 04:40:49 80° SW 04:58:12 10° SE visible
02 Mar - 06:42:43 10° W 06:59:13 33° SW 07:11:23 10° SSE daylight
02 Mar - 16:03:31 10° SW 16:07:28 88° NW 16:11:53 10° NE daylight
02 Mar - 18:19:43 10° NW 18:21:21 11° NNW 18:23:10 10° N daylight
02 Mar - 22:53:42 10° N 22:59:04 13° NNE 23:05:22 10° NE night (unlit)
03 Mar - 01:04:38 10° NNW 01:19:08 37° NNE 01:36:53 10° E visible
03 Mar - 03:19:05 10° NW 03:38:28 82° NE 03:57:28 10° ESE visible
03 Mar - 05:38:27 10° WNW 05:57:23 46° SW 06:12:12 10° SSE visible
03 Mar - 08:07:33 10° WSW 08:16:13 16° SSW 08:23:10 10° S daylight
03 Mar - 15:04:30 10° SW 15:08:29 38° SSE 15:12:12 10° ENE daylight
03 Mar - 17:18:44 10° WNW 17:21:31 17° NNW 17:24:47 10° NNE daylight
04 Mar - 00:05:27 10° NNW 00:16:59 26° NNE 00:31:54 10° E visible
04 Mar - 02:18:27 10° NW 02:36:05 65° NE 02:55:51 10° ESE visible
04 Mar - 04:35:30 10° WNW 04:55:14 61° SW 05:12:23 10° SE visible
04 Mar - 07:00:23 10° WSW 07:14:18 24° SSW 07:25:04 10° SSE daylight
04 Mar - 14:05:41 10° SSW 14:09:13 20° SSE 14:12:13 10° ESE daylight
04 Mar - 16:18:36 10° W 16:22:08 31° NNW 16:26:01 10° NNE daylight
04 Mar - 23:07:02 10° N 23:15:03 18° NNE 23:25:14 10° ENE night (unlit)
